Location: Dammartin
(48.9032°N, 1.6195°E)
Time: 12:07:35
(UTC+00:00)

Cosmos 1892 Rocket - Pass Details

Date: 03 February 2023
Orbit: 605 x 631 km, 82.5° (Epoch: 30 March)

Event Time Altitude Azimuth Distance (km) Brightness Sun altitude
Rises 18:41:41 0° 189° (S) 2,897 7.2 -17.9°
Reaches altitude 10° 18:43:55 10° 189° (S) 1,991 6.3 -18.3°
Maximum altitude 18:48:20 87° 278° (W) 628 3.5 -19.0°
Drops below altitude 10° 18:52:45 10° 9° (N) 1,991 6.0 -19.7°
Sets 18:54:59 0° 10° (N) 2,897 6.9 -20.1°
